Terug naar catalogus

SL-16 DEB

ActiefLEO
NORAD 43374·DEBRIS·🇷🇺 Russia

Gelanceerd Jun 29, 2007 vanaf Baikonur Cosmodrome

Loading…

Volgende Passages (komende 24 uur)

TLE

VersSource: Space-Track

Epoch: Sep 13, 2026, 03:53 UTC

1 43374U 07029R   26256.16203240  .00002250  00000-0  15790-2 0  9991
2 43374  71.0656  77.8796 0185727 132.7024 228.9898 13.91325354644210

Volg SL-16 DEB in realtime met AllMySat

Download on the App Store